Glencoe, MN

3:46 PM CST on December 09, 2019 (GMT -0600)
Glencoe Municipal

Weather History for KGYL - October, 2019

Change the Weather History Date:

Tuesday, October 1, 2019

  Actual Average (KHCD) Record (KHCD)
Temperature  
Mean Temperature 54 °F -  
Max Temperature 57 °F 69 °F 89 °F (1963)
Min Temperature 50 °F 44 °F 26 °F (1961)
Degree Days  
Heating Degree Days 12    
Growing Degree Days 4 (Base 50)    
Moisture  
Dew Point 52 °F    
Average Humidity 99    
Maximum Humidity 100    
Minimum Humidity 94    
Precipitation  
Precipitation 0.71 in - - ()
Sea Level Pressure  
Sea Level Pressure 30.00 in    
Wind  
Wind Speed 7 mph (North)    
Max Wind Speed 14 mph    
Max Gust Speed 17 mph    
Visibility 9 miles    
Events Rain    
Averages and records for this station are not official NWS values.
T = Trace of Precipitation, MM = Missing Value Source: NWS Daily Summary

Daily Weather History Graph

Daily Weather History Graph

Search for Another Location

Airport or City:

Astronomy

Oct. 01, 2019 Rise Set
Actual Time 7:14 AM CDT 6:57 PM CDT
Civil Twilight 6:44 AM CDT 7:26 PM CDT
Nautical Twilight 6:10 AM CDT 8:00 PM CDT
Astronomical Twilight 5:36 AM CDT 8:34 PM CDT
Moon 10:38 AM CDT (10/1) 9:02 PM CDT (10/1)
Length of Visible Light 12h 41m
Length of Day
11h 43m
Waxing Crescent, 12% of the Moon is Illuminated
Oct 1
Waxing Crescent
Oct 5
First Quarter
Oct 13
Full
Oct 21
Last Quarter
Oct 27
New

Hourly Weather History & Observations

Time (CDT) Temp. Dew Point Humidity Pressure Visibility Wind Dir Wind Speed Gust Speed Precip Events Conditions
12:59 AM 57.2 °F 57.2 °F 100% 29.89 in 10.0 mi NNW 9.2 mph - N/A   Overcast
1:59 AM 57.2 °F 57.2 °F 100% 29.94 in 10.0 mi Calm Calm - N/A   Overcast
3:59 AM 53.6 °F 53.6 °F 100% 29.94 in 10.0 mi NNW 12.7 mph - N/A   Overcast
4:59 AM 53.6 °F 53.6 °F 100% 29.98 in 10.0 mi Calm Calm - N/A Rain Light Rain
5:59 AM 53.6 °F 53.6 °F 100% 30.00 in 10.0 mi NNW 10.4 mph - 0.01 in Rain Light Rain
6:59 AM 51.8 °F 51.8 °F 100% 29.99 in 10.0 mi NNW 5.8 mph - 0.01 in   Overcast
7:59 AM 51.8 °F 51.8 °F 100% 29.99 in 10.0 mi North 6.9 mph - N/A   Overcast
8:59 AM 51.8 °F 51.8 °F 100% 30.00 in 10.0 mi North 9.2 mph - N/A   Overcast
9:59 AM 51.8 °F 50.0 °F 94% 30.03 in 10.0 mi North 4.6 mph - N/A   Overcast
10:59 AM 51.8 °F 51.8 °F 100% 30.05 in 10.0 mi North 11.5 mph - 0.05 in Rain Light Rain
11:59 AM 50.0 °F 50.0 °F 100% 29.99 in 10.0 mi NNW 13.8 mph 17.3 mph 0.02 in   Light Drizzle
12:59 PM 51.8 °F 51.8 °F 100% 30.03 in 10.0 mi North 6.9 mph - N/A Rain Rain
1:59 PM 51.8 °F 51.8 °F 100% 30.03 in 4.0 mi North 8.1 mph - 0.06 in Rain Heavy Rain
2:59 PM 51.8 °F 51.8 °F 100% 30.01 in 10.0 mi North 9.2 mph - 0.13 in Rain Light Rain
3:59 PM 50.0 °F 50.0 °F 100% 30.03 in 5.0 mi North 6.9 mph - 0.10 in Rain Heavy Rain
4:59 PM 50.0 °F 50.0 °F 100% 29.98 in 4.0 mi NE 9.2 mph - 0.29 in Rain Heavy Rain
5:59 PM 50.0 °F 50.0 °F 100% 30.00 in 10.0 mi North 9.2 mph - 0.04 in   Overcast
6:59 PM 50.0 °F 50.0 °F 100% 30.00 in 10.0 mi North 10.4 mph - N/A   Overcast
7:59 PM 50.0 °F 50.0 °F 100% 30.00 in 10.0 mi NNE 3.5 mph - N/A   Overcast
8:59 PM 50.0 °F 50.0 °F 100% 30.01 in 10.0 mi North 4.6 mph - N/A   Overcast
9:59 PM 50.0 °F 50.0 °F 100% 30.03 in 10.0 mi North 3.5 mph - N/A   Overcast
10:59 PM 51.8 °F 51.8 °F 100% 30.03 in 10.0 mi North 8.1 mph - N/A   Overcast
11:59 PM 51.8 °F 50.0 °F 94% 30.02 in 10.0 mi North 8.1 mph - N/A   Overcast